ATLAS 5 CENTAUR DEB, 52973

Orbit data source: Space-Track

ATLAS 5 CENTAUR DEB, 52973 is space debris in HEO originally from a launch on Wed, 17 Oct 2018 UTC launched from the Air Force Eastern Test Range (AFETR). Debris objects in space refer to the collection of defunct objects orbiting the Earth. Examples of debris include non-operational satellites, rocket bodies, and fragments generated from explosions, collisions, or faulty payload assembly.

Not visible in the next 10 days
Identifier
52973, 2018-079GX
Orbit
HEO
Country
Flag of USUS
Related business
Flag of USUnited Launch Alliance/Lockheed Martin (US)
Manufacturer
ULA Decatur
Mission
Spacecraft
Bus & Motor
Unknown
Mass
Unknown
Launch date (UTC)
2018-10-17 (7 years ago)
Launch vehicle
Unknown
Launch site
Air Force Eastern Test Range (AFETR)
Object type
Payload
Rocket body
Debris
Shape & HBR
Unknown shape, 1.1 m
Radar Cross Section
RCS unknown

Expand to show TLE details & history
Last TLE update: 5 days ago

TLE from 5 days ago
0 ATLAS 5 CENTAUR DEB
1 52973U 18079GX  26032.15887818 -.00000146  00000-0  00000+0 0  9991
2 52973  12.6296  78.9975 4558226 223.9613  89.0942  1.71423554 28090
Epoch: 2026-02-01T03:48Z
TLE epoch observation values (Epoch: 2026-02-01T03:48:47.074Z)
Latitude
-0.00001°
Longitude
-109.47414°
Altitude
28,408.302 km
Speed
3.066 km/s
True Right ascension
05h 16m 22s
True Declination
0° 00' 00"
Sunlit
Object was in daylight at epoch
Visualization orbit readout
Latitude
Unknown
Longitude
Unknown
Altitude
Unknown
Speed
Unknown
Apparent Right ascension
Unknown
Apparent Declination
Unknown
Sunlit
N/A
Visualization observer readout
Local Sidereal Time
19:33:41
Azimuth
Unknown
Elevation
Unknown
Doppler factor
Unknown
Orbital elements
Apogee altitude
36,558.285 km
Perigee altitude
9,671.23 km
Semi-major axis
29,492.894 km
Eccentricity
0.45582
Inclination
12.6296°
RAAN
78.9975°
Arg. of periapsis
223.9613°
True anomaly
136.02315°
Mean anomaly
89.0942°
Eccentric anomaly
113.11435°
Mean motion
0.42852 °/min
Orbital period
840.11 mins
BSTAR
0
Loading maneuver chart data...
Computing Atmospheric mass density...

Documentation

Showing up to 5 results
|